User: anonymous   Login
Location: Caltech
(34.1382°N, 118.1253°W)
Time: 03:53:35
(UTC-08:00)
Language:

Cosmos 1408 Rocket - Orbit

View from above orbital plane
View from above orbital plane
View from above satellite
View from above satellite

Ground track
Ground track

The orbit data is extracted from the following two-line orbital elements,

1 13553U 82092B   15063.74930161  .00000562  00000-0  64788-4 0  9994
2 13553 082.5683 292.3052 0020116 286.5695 188.3035 14.83807358753139
Epoch (UTC): 04 March 2015 17:58:59
Eccentricity: 0.0020116
inclination: 82.5683°
perigee height: 603 km
apogee height: 631 km
right ascension of ascending node: 292.3052°
argument of perigee: 286.5695°
revolutions per day: 14.83807358
mean anomaly at epoch: 188.3035°
orbit number at epoch: 75313

The dashed part of the orbit path shows where the satellite is in the earth's shadow,  

DLR